Weather History for KANE - March, 2013

Change the Weather History Date:

Thursday, March 28, 2013

  Actual Average (WUND) Record (WUND)
Temperature  
Mean Temperature 32 °F -  
Max Temperature 44 °F - - (-1)
Min Temperature 21 °F - - (-1)
Degree Days  
Heating Degree Days 32    
Moisture  
Dew Point 22 °F    
Average Humidity 71    
Maximum Humidity 93    
Minimum Humidity 37    
Precipitation  
Precipitation 0.00 in - - ()
Sea Level Pressure  
Sea Level Pressure 30.31 in    
Wind  
Wind Speed 1 mph (SE)    
Max Wind Speed 7 mph    
Max Gust Speed -    
Visibility 10 miles    
Events      
Averages and records for this station are not official NWS values.
T = Trace of Precipitation, MM = Missing Value Source: NWS Daily Summary

Daily Weather History Graph

Daily Weather History Graph

Search for Another Location

Airport or City:

Trip Planner

Search our weather history database for the weather conditions in past years. The results will help you decide how hot, cold, wet, or windy it might be!

Date:

Astronomy

Mar. 28, 2013 Rise Set
Actual Time 7:00 AM CDT 7:35 PM CDT
Civil Twilight 6:30 AM CDT 8:05 PM CDT
Nautical Twilight 5:55 AM CDT 8:40 PM CDT
Astronomical Twilight 5:19 AM CDT 9:17 PM CDT
Moon 9:35 PM CDT (3/28) 7:23 AM CDT (3/28)
Length of Visible Light 13h 34m
Length of Day
12h 35m
Full, 98% of the Moon is Illuminated
Mar 28
Full
Apr 2
Last Quarter
Apr 10
New
Apr 18
First Quarter
Apr 25
Full

Hourly Weather History & Observations

Time (CDT) Temp. Windchill Dew Point Humidity Pressure Visibility Wind Dir Wind Speed Gust Speed Precip Events Conditions
12:14 AM 30.2 °F - 21.2 °F 69% 30.33 in 10.0 mi Calm Calm - N/A   Clear
12:34 AM 28.4 °F - 21.2 °F 74% 30.33 in 10.0 mi Calm Calm - N/A   Clear
12:54 AM 28.4 °F - 21.2 °F 74% 30.33 in 10.0 mi Calm Calm - N/A   Clear
1:13 AM 26.6 °F - 21.2 °F 80% 30.33 in 10.0 mi Calm Calm - N/A   Clear
1:34 AM 26.6 °F - 21.2 °F 80% 30.33 in 10.0 mi Calm Calm - N/A   Clear
1:54 AM 26.6 °F - 21.2 °F 80% 30.33 in 10.0 mi Calm Calm - N/A   Clear
2:13 AM 26.6 °F - 21.2 °F 80% 30.33 in 10.0 mi Calm Calm - N/A   Clear
2:34 AM 26.6 °F - 21.2 °F 80% 30.33 in 10.0 mi Calm Calm - N/A   Clear
2:53 AM 24.8 °F - 21.2 °F 86% 30.33 in 10.0 mi Calm Calm - N/A   Clear
3:14 AM 24.8 °F - 21.2 °F 86% 30.32 in 10.0 mi Calm Calm - N/A   Clear
3:34 AM 24.8 °F - 19.4 °F 80% 30.32 in 10.0 mi Calm Calm - N/A   Clear
3:53 AM 24.8 °F - 21.2 °F 86% 30.32 in 10.0 mi Calm Calm - N/A   Clear
4:14 AM 23.0 °F - 19.4 °F 86% 30.31 in 10.0 mi Calm Calm - N/A   Clear
4:34 AM 23.0 °F - 19.4 °F 86% 30.32 in 10.0 mi Calm Calm - N/A   Clear
4:53 AM 21.2 °F - 19.4 °F 93% 30.32 in 10.0 mi Calm Calm - N/A   Clear
5:14 AM 23.0 °F - 19.4 °F 86% 30.32 in 10.0 mi Calm Calm - N/A   Clear
5:34 AM 21.2 °F - 19.4 °F 93% 30.32 in 10.0 mi Calm Calm - N/A   Clear
5:53 AM 21.2 °F - 19.4 °F 93% 30.32 in 10.0 mi Calm Calm - N/A   Clear
6:14 AM 21.2 °F - 19.4 °F 93% 30.33 in 10.0 mi Calm Calm - N/A   Clear
6:34 AM 21.2 °F - 19.4 °F 93% 30.33 in 10.0 mi Calm Calm - N/A   Clear
6:53 AM 21.2 °F 16.4 °F 19.4 °F 93% 30.32 in 10.0 mi East 3.5 mph - N/A   Clear
7:45 AM 21.2 °F - 19.4 °F 93% 30.32 in 10.0 mi Calm Calm - N/A   Scattered Clouds
8:45 AM 28.4 °F - 21.2 °F 74% 30.34 in 10.0 mi Calm Calm - N/A   Scattered Clouds
9:45 AM 35.6 °F - 23.0 °F 60% 30.34 in 10.0 mi Calm Calm - N/A   Scattered Clouds
10:45 AM 37.4 °F 32.1 °F 21.2 °F 52% 30.34 in 10.0 mi ENE 6.9 mph - N/A   Clear
11:45 AM 39.2 °F 35.9 °F 21.2 °F 49% 30.34 in 10.0 mi SE 4.6 mph - N/A   Clear
12:50 PM 42.8 °F 39.3 °F 21.2 °F 42% 30.32 in 10.0 mi SE 5.8 mph - N/A   Clear
1:50 PM 42.8 °F 38.6 °F 21.2 °F 42% 30.31 in 10.0 mi ESE 6.9 mph - N/A   Clear
3:45 PM 44.6 °F 42.2 °F 19.4 °F 37% 30.28 in 10.0 mi SE 4.6 mph - N/A   Clear
4:50 PM 44.6 °F 40.7 °F 21.2 °F 39% 30.27 in 10.0 mi SSE 6.9 mph - N/A   Clear
5:55 PM 44.6 °F 42.2 °F 21.2 °F 39% 30.27 in 10.0 mi SE 4.6 mph - N/A   Clear
6:45 PM 42.8 °F 41.1 °F 24.8 °F 49% 30.27 in 10.0 mi SE 3.5 mph - N/A   Clear
7:45 PM 42.8 °F 41.1 °F 23.0 °F 46% 30.28 in 10.0 mi ESE 3.5 mph - N/A   Clear
8:45 PM 39.2 °F 35.0 °F 24.8 °F 56% 30.28 in 10.0 mi SSE 5.8 mph - N/A   Scattered Clouds
9:14 PM 39.2 °F 35.9 °F 26.6 °F 61% 30.29 in 10.0 mi SE 4.6 mph - N/A   Clear
9:34 PM 37.4 °F 34.9 °F 26.6 °F 65% 30.29 in 10.0 mi SE 3.5 mph - N/A   Clear
9:54 PM 37.4 °F 34.9 °F 26.6 °F 65% 30.29 in 10.0 mi SE 3.5 mph - N/A   Clear
10:14 PM 35.6 °F 32.8 °F 26.6 °F 70% 30.29 in 10.0 mi ESE 3.5 mph - N/A   Clear
10:33 PM 35.6 °F 32.8 °F 26.6 °F 70% 30.29 in 10.0 mi SE 3.5 mph - N/A   Clear
10:54 PM 33.8 °F - 24.8 °F 70% 30.28 in 10.0 mi Calm Calm - N/A   Clear
11:14 PM 33.8 °F - 24.8 °F 70% 30.28 in 10.0 mi Calm Calm - N/A   Clear
11:33 PM 32.0 °F - 24.8 °F 75% 30.28 in 10.0 mi Calm Calm - N/A   Clear
11:54 PM 32.0 °F - 24.8 °F 75% 30.28 in 10.0 mi Calm Calm - N/A   Clear